Mc Donough, Georgia, United States
Lat: 33.45N, Lon: 84.15W
Wx Zone: GAZ057
Local Info
Past Weather Observations for Today

NOTE: This archive is for the closest National Weather Service station to Mc Donough. Information may differ from the station used for current weather conditions.

Click here for Long-term Archive

Time Weather Temperature Dewpoint Humidity Pressure Winds Precip Visibility
22:52
Partly Cloudy
81°F / 27°C 64°F / 18°C 58% 30.04 in
(1017 mb)
NW 5.8 mph
(NW 9 kph)
- 10SM
21:52
Partly Cloudy
82°F / 28°C 63°F / 17°C 51% 30.04 in
(1017 mb)
S 4.6 mph
(S 7 kph)
- 10SM
20:52
Partly Cloudy
86°F / 30°C 63°F / 17°C 46% 30.01 in
(1016 mb)
SW 3.5 mph
(SW 6 kph)
- 10SM
19:52
Partly Cloudy
88°F / 31°C 63°F / 17°C 43% 30.01 in
(1016 mb)
Calm - 10SM
18:52
Partly Cloudy
91°F / 33°C 63°F / 17°C 38% 29.98 in
(1015 mb)
SW 4.6 mph
(SW 7 kph)
- 10SM
17:52
Partly Cloudy
93°F / 34°C 61°F / 16°C 34% 29.98 in
(1015 mb)
NW 6.9 mph
(NW 11 kph)
- 10SM
16:52
Partly Cloudy
95°F / 35°C 57°F / 14°C 28% 29.98 in
(1015 mb)
WNW 8.1 mph
(WNW 13 kph)
- 10SM
15:52
Partly Cloudy
95°F / 35°C 57°F / 14°C 28% 30.01 in
(1016 mb)
W 5.8 mph
(W 9 kph)
- 10SM
14:52
Partly Cloudy
95°F / 35°C 57°F / 14°C 28% 30.01 in
(1016 mb)
W 8.1 mph
(W 13 kph)
- 10SM
13:52
Partly Cloudy
93°F / 34°C 59°F / 15°C 32% 30.04 in
(1017 mb)
WNW 8.1 mph
(WNW 13 kph)
- 10SM
12:52
Partly Cloudy
93°F / 34°C 57°F / 14°C 30% 30.04 in
(1017 mb)
Calm - 10SM
11:52
Partly Cloudy
91°F / 33°C 64°F / 18°C 41% 30.04 in
(1017 mb)
Variable 3.5 mph
(Variable 6 kph)
- 10SM
10:52
Partly Cloudy
90°F / 32°C 66°F / 19°C 46% 30.04 in
(1017 mb)
W 4.6 mph
(W 7 kph)
- 10SM
09:52
Mostly Cloudy
88°F / 31°C 66°F / 19°C 49% 30.04 in
(1017 mb)
Variable 3.5 mph
(Variable 6 kph)
- 10SM
08:52
Partly Cloudy
86°F / 30°C 66°F / 19°C 52% 30.04 in
(1017 mb)
NNW 3.5 mph
(NNW 6 kph)
- 10SM
07:52
Partly Cloudy
81°F / 27°C 66°F / 19°C 62% 30.04 in
(1017 mb)
Variable 3.5 mph
(Variable 6 kph)
- 10SM
06:52
Partly Cloudy
75°F / 24°C 66°F / 19°C 74% 30.01 in
(1016 mb)
NNW 6.9 mph
(NNW 11 kph)
- 10SM
05:52
Partly Cloudy
73°F / 23°C 64°F / 18°C 74% 30.01 in
(1016 mb)
NW 4.6 mph
(NW 7 kph)
- 10SM
04:52
Mostly Cloudy
75°F / 24°C 64°F / 18°C 69% 29.98 in
(1015 mb)
Calm - 10SM
03:52
Mostly Cloudy
75°F / 24°C 64°F / 18°C 69% 29.98 in
(1015 mb)
Calm - 10SM
02:52
Mostly Cloudy
79°F / 26°C 66°F / 19°C 65% 29.98 in
(1015 mb)
Calm - 10SM
01:52
Mostly Cloudy
79°F / 26°C 66°F / 19°C 65% 29.98 in
(1015 mb)
NNW 6.9 mph
(NNW 11 kph)
- 10SM
00:52
Mostly Cloudy
82°F / 28°C 66°F / 19°C 58% 29.98 in
(1015 mb)
Calm - 10SM
Time Weather Temperature Dewpoint Humidity Pressure Winds Precip Visibility


Weather for websites

WeatherForYou.com, LLC is not responsible for any damages or problems caused by this service. Current weather conditions are obtained from the closest station including government and personal stations which may have varying degrees of accuracy. Weather forecasts are derived from the NOAA NDFD. Like all things, this site belongs to Jesus Christ... He just trusts us to maintain it. If you have any questions or comments email webmaster@weatherforyou.com

Copyright © 2015, WeatherForYou.com LLC. All rights reserved.